TimeEST,TemperatureF,Dew PointF,Humidity,Sea Level PressureIn,VisibilityMPH,Wind Direction,Wind SpeedMPH,Gust SpeedMPH,PrecipitationIn,Events,Conditions,WindDirDegrees,DateUTC
12:09 AM,39.2,37.4,93,30.06,2.5,ENE,10.4,-,N/A,,Overcast,70,2012-12-09 05:09:00
12:29 AM,39.2,37.4,93,30.05,3.0,East,9.2,-,N/A,,Overcast,80,2012-12-09 05:29:00
12:53 AM,39.9,36.0,86,30.06,4.0,East,13.8,-,N/A,,Overcast,90,2012-12-09 05:53:00
1:53 AM,39.0,35.1,86,30.06,4.0,East,10.4,-,N/A,,Overcast,80,2012-12-09 06:53:00
2:44 AM,39.2,35.6,87,30.07,3.0,ENE,9.2,-,N/A,,Overcast,70,2012-12-09 07:44:00
2:53 AM,39.0,36.0,89,30.06,3.0,East,10.4,-,N/A,,Overcast,80,2012-12-09 07:53:00
3:53 AM,39.0,36.0,89,30.04,4.0,East,16.1,-,N/A,,Overcast,90,2012-12-09 08:53:00
4:21 AM,39.2,35.6,87,30.04,4.0,East,9.2,-,N/A,,Overcast,100,2012-12-09 09:21:00
4:53 AM,39.0,36.0,89,30.01,4.0,East,16.1,-,N/A,,Overcast,90,2012-12-09 09:53:00
5:53 AM,39.9,36.0,86,30.02,4.0,East,15.0,-,0.00,,Overcast,90,2012-12-09 10:53:00
7:53 AM,39.9,36.0,86,29.98,6.0,East,13.8,23.0,N/A,,Overcast,90,2012-12-09 12:53:00
8:53 AM,39.9,37.0,89,29.96,4.0,East,13.8,-,N/A,,Overcast,90,2012-12-09 13:53:00
9:00 AM,39.2,37.4,93,29.95,4.0,East,12.7,-,N/A,,Overcast,100,2012-12-09 14:00:00
9:53 AM,41.0,37.0,86,29.96,4.0,East,9.2,-,N/A,,Overcast,100,2012-12-09 14:53:00
10:15 AM,41.0,37.4,87,29.93,2.5,East,12.7,-,N/A,,Overcast,100,2012-12-09 15:15:00
10:53 AM,41.0,37.9,89,29.94,2.5,East,11.5,-,0.00,Rain,Light Rain,100,2012-12-09 15:53:00
11:09 AM,41.0,37.4,87,29.93,1.8,East,9.2,-,0.02,Rain,Rain,80,2012-12-09 16:09:00
11:40 AM,41.0,39.2,93,29.91,2.0,East,9.2,-,0.14,Rain,Light Rain,100,2012-12-09 16:40:00
11:51 AM,41.0,39.2,93,29.89,1.2,ESE,12.7,-,0.19,Rain,Rain,120,2012-12-09 16:51:00
11:53 AM,41.0,39.0,93,29.89,1.2,ESE,12.7,-,0.20,Rain,Rain,110,2012-12-09 16:53:00
12:04 PM,42.8,39.2,87,29.87,1.5,ESE,12.7,-,0.03,Rain,Rain,120,2012-12-09 17:04:00
12:10 PM,42.8,39.2,87,29.87,1.0,SE,11.5,-,0.10,Rain,Heavy Rain,130,2012-12-09 17:10:00
12:25 PM,42.8,39.2,87,29.86,2.5,ESE,11.5,-,0.13,Rain,Light Rain,120,2012-12-09 17:25:00
12:28 PM,42.8,39.2,87,29.86,3.0,ESE,9.2,-,0.13,Rain,Light Rain,120,2012-12-09 17:28:00
12:49 PM,42.8,41.0,93,29.85,2.5,SE,6.9,-,0.13,,Overcast,130,2012-12-09 17:49:00
12:53 PM,43.0,41.0,93,29.85,2.5,ESE,6.9,-,0.13,,Overcast,120,2012-12-09 17:53:00
1:24 PM,44.6,42.8,93,29.83,1.8,SE,8.1,-,N/A,,Overcast,130,2012-12-09 18:24:00
1:48 PM,44.6,42.8,93,29.80,0.8,SSE,10.4,-,N/A,,Overcast,150,2012-12-09 18:48:00
1:53 PM,46.0,44.1,93,29.81,0.8,SSE,8.1,-,N/A,,Overcast,150,2012-12-09 18:53:00
2:05 PM,46.4,44.6,93,29.79,1.0,SSE,8.1,-,N/A,,Overcast,150,2012-12-09 19:05:00
2:26 PM,46.4,46.4,100,29.79,2.0,SSE,9.2,-,0.00,,Overcast,160,2012-12-09 19:26:00
2:53 PM,48.9,46.9,93,29.78,2.5,South,9.2,-,0.00,,Overcast,180,2012-12-09 19:53:00
3:20 PM,48.2,46.4,93,29.76,1.8,South,9.2,-,N/A,,Overcast,180,2012-12-09 20:20:00
3:53 PM,50.0,48.9,96,29.77,1.5,SSW,5.8,-,N/A,,Overcast,200,2012-12-09 20:53:00
4:53 PM,52.0,50.0,93,29.77,1.8,SSW,6.9,-,N/A,,Overcast,200,2012-12-09 21:53:00
5:02 PM,51.8,50.0,94,29.77,2.5,SSW,5.8,-,N/A,,Overcast,200,2012-12-09 22:02:00
5:23 PM,51.8,50.0,94,29.77,1.8,South,5.8,-,N/A,,Overcast,190,2012-12-09 22:23:00
5:40 PM,51.8,50.0,94,29.76,2.0,South,6.9,-,N/A,,Overcast,190,2012-12-09 22:40:00
5:53 PM,52.0,50.0,93,29.74,2.5,South,5.8,-,N/A,,Overcast,170,2012-12-09 22:53:00
6:18 PM,53.6,51.8,94,29.72,2.5,South,10.4,-,N/A,,Overcast,180,2012-12-09 23:18:00
6:36 PM,53.6,51.8,94,29.72,3.0,South,9.2,-,N/A,,Overcast,180,2012-12-09 23:36:00
6:53 PM,53.1,52.0,96,29.72,3.0,SSW,3.5,-,N/A,,Overcast,200,2012-12-09 23:53:00
7:53 PM,54.0,52.0,93,29.71,4.0,South,4.6,-,N/A,,Overcast,190,2012-12-10 00:53:00
8:36 PM,53.6,51.8,94,29.69,1.8,NW,4.6,-,0.04,Rain,Light Rain,320,2012-12-10 01:36:00
8:49 PM,51.8,51.8,100,29.68,0.8,NW,3.5,-,0.05,Rain,Light Rain,310,2012-12-10 01:49:00
8:50 PM,52.0,51.1,97,29.68,0.8,Calm,Calm,-,0.05,Rain,Light Rain,0,2012-12-10 01:50:00
9:02 PM,53.6,51.8,94,29.67,0.8,Calm,Calm,-,0.01,Rain,Light Rain,0,2012-12-10 02:02:00
9:30 PM,51.8,50.0,94,29.69,3.0,NW,19.6,25.3,0.02,Rain,Light Rain,310,2012-12-10 02:30:00
9:53 PM,51.1,48.9,92,29.68,8.0,NW,9.2,-,0.06,Rain,Light Rain,320,2012-12-10 02:53:00
10:09 PM,50.0,48.2,94,29.69,10.0,WNW,9.2,-,0.00,,Overcast,290,2012-12-10 03:09:00
10:53 PM,50.0,48.0,93,29.70,10.0,West,8.1,-,0.01,,Overcast,280,2012-12-10 03:53:00
11:30 PM,50.0,46.4,87,29.69,10.0,WNW,9.2,-,N/A,,Overcast,290,2012-12-10 04:30:00
11:53 PM,48.9,46.0,90,29.70,10.0,WNW,8.1,-,N/A,,Overcast,290,2012-12-10 04:53:00